Shawnee, OK

12:19 PM CDT on March 28, 2017 (GMT -0500)
Shawnee Municipal

Weather History for KSNL - October, 2012

Change the Weather History Date:

Tuesday, October 9, 2012

  Actual Average (KTIK) Record (KTIK)
Temperature  
Mean Temperature 62 °F -  
Max Temperature 73 °F 71 °F 88 °F (2014)
Min Temperature 51 °F 52 °F 28 °F (2000)
Degree Days  
Heating Degree Days 3    
Growing Degree Days 12 (Base 50)    
Moisture  
Dew Point 55 °F    
Average Humidity 80    
Maximum Humidity 100    
Minimum Humidity 62    
Precipitation  
Precipitation 0.00 in - - ()
Sea Level Pressure  
Sea Level Pressure 29.96 in    
Wind  
Wind Speed 11 mph (South)    
Max Wind Speed 20 mph    
Max Gust Speed 26 mph    
Visibility 10 miles    
Events      
Averages and records for this station are not official NWS values.
T = Trace of Precipitation, MM = Missing Value Source: NWS Daily Summary

Daily Weather History Graph

Daily Weather History Graph

Search for Another Location

Airport or City:

Trip Planner

Search our weather history database for the weather conditions in past years. The results will help you decide how hot, cold, wet, or windy it might be!

Date:

Astronomy

Oct. 09, 2012 Rise Set
Actual Time 7:29 AM CDT 6:59 PM CDT
Civil Twilight 7:03 AM CDT 7:25 PM CDT
Nautical Twilight 6:34 AM CDT 7:54 PM CDT
Astronomical Twilight 6:04 AM CDT 8:24 PM CDT
Moon 1:19 AM CDT (10/9) 3:16 PM CDT (10/9)
Length of Visible Light 12h 21m
Length of Day
11h 30m
Last Quarter, 36% of the Moon is Illuminated
Oct 9
Last Quarter
Oct 15
New
Oct 21
First Quarter
Oct 29
Full
Nov 6
Last Quarter

Hourly Weather History & Observations

Time (CDT) Temp. Dew Point Humidity Pressure Visibility Wind Dir Wind Speed Gust Speed Precip Events Conditions
12:15 AM 53.6 °F 42.8 °F 67% 30.04 in 10.0 mi South 10.4 mph - N/A   Clear
12:35 AM 53.6 °F 41.0 °F 62% 30.04 in 10.0 mi South 10.4 mph - N/A   Clear
12:55 AM 53.6 °F 42.8 °F 67% 30.03 in 10.0 mi South 12.7 mph - N/A   Clear
1:15 AM 53.6 °F 42.8 °F 67% 30.03 in 10.0 mi South 10.4 mph - N/A   Clear
1:35 AM 53.6 °F 44.6 °F 72% 30.02 in 10.0 mi South 11.5 mph 18.4 mph N/A   Clear
1:55 AM 53.6 °F 44.6 °F 72% 30.02 in 10.0 mi South 12.7 mph 17.3 mph N/A   Clear
2:15 AM 53.6 °F 44.6 °F 72% 30.02 in 10.0 mi South 12.7 mph - N/A   Clear
2:35 AM 53.6 °F 44.6 °F 72% 30.02 in 10.0 mi South 10.4 mph 20.7 mph N/A   Clear
3:15 AM 53.6 °F 46.4 °F 77% 30.01 in 10.0 mi South 10.4 mph - N/A   Clear
3:35 AM 51.8 °F 46.4 °F 82% 30.01 in 10.0 mi South 10.4 mph - N/A   Clear
3:55 AM 51.8 °F 46.4 °F 82% 30.00 in 10.0 mi South 9.2 mph - N/A   Clear
4:15 AM 51.8 °F 46.4 °F 82% 29.99 in 10.0 mi South 10.4 mph - N/A   Clear
4:35 AM 51.8 °F 46.4 °F 82% 29.99 in 10.0 mi South 10.4 mph - N/A   Clear
4:55 AM 51.8 °F 48.2 °F 88% 29.98 in 10.0 mi SSE 9.2 mph - N/A   Clear
5:15 AM 51.8 °F 48.2 °F 88% 29.97 in 10.0 mi South 10.4 mph - N/A   Clear
5:35 AM 51.8 °F 48.2 °F 88% 29.97 in 10.0 mi SSE 10.4 mph - N/A   Clear
5:55 AM 51.8 °F 48.2 °F 88% 29.97 in 10.0 mi SSE 12.7 mph - N/A   Clear
6:15 AM 51.8 °F 48.2 °F 88% 29.97 in 10.0 mi SSE 10.4 mph - N/A   Clear
6:35 AM 51.8 °F 50.0 °F 94% 29.97 in 10.0 mi SSE 11.5 mph - N/A   Clear
7:15 AM 51.8 °F 50.0 °F 94% 29.96 in 10.0 mi SSE 11.5 mph - N/A   Clear
7:35 AM 51.8 °F 50.0 °F 94% 29.95 in 10.0 mi SSE 16.1 mph 21.9 mph N/A   Clear
7:55 AM 51.8 °F 50.0 °F 94% 29.94 in 10.0 mi SSE 16.1 mph 21.9 mph N/A   Clear
8:15 AM 51.8 °F 50.0 °F 94% 29.94 in 10.0 mi SSE 13.8 mph 24.2 mph N/A   Clear
8:35 AM 53.6 °F 50.0 °F 88% 29.94 in 10.0 mi South 17.3 mph 24.2 mph N/A   Clear
9:15 AM 55.4 °F 51.8 °F 88% 29.95 in 10.0 mi South 12.7 mph - N/A   Clear
9:35 AM 59.0 °F 53.6 °F 82% 29.95 in 10.0 mi South 13.8 mph - N/A   Clear
9:55 AM 59.0 °F 53.6 °F 82% 29.95 in 10.0 mi South 13.8 mph 19.6 mph N/A   Scattered Clouds
10:15 AM 60.8 °F 55.4 °F 82% 29.95 in 10.0 mi South 11.5 mph 24.2 mph N/A   Mostly Cloudy
10:35 AM 60.8 °F 55.4 °F 82% 29.94 in 10.0 mi South 11.5 mph 20.7 mph N/A   Overcast
10:55 AM 62.6 °F 55.4 °F 77% 29.94 in 10.0 mi South 15.0 mph 20.7 mph N/A   Overcast
11:15 AM 62.6 °F 55.4 °F 77% 29.93 in 10.0 mi South 18.4 mph - N/A   Overcast
11:35 AM 66.2 °F 57.2 °F 73% 29.92 in 10.0 mi SSW 19.6 mph 26.5 mph N/A   Overcast
11:55 AM 64.4 °F 57.2 °F 77% 29.92 in 10.0 mi South 16.1 mph 24.2 mph N/A   Overcast
12:15 PM 68.0 °F 59.0 °F 73% 29.91 in 10.0 mi South 17.3 mph 21.9 mph N/A   Overcast
12:35 PM 69.8 °F 60.8 °F 73% 29.89 in 10.0 mi South 17.3 mph 21.9 mph N/A   Overcast
12:55 PM 71.6 °F 59.0 °F 64% 29.89 in 10.0 mi South 11.5 mph 25.3 mph N/A   Mostly Cloudy
1:15 PM 71.6 °F 59.0 °F 64% 29.88 in 10.0 mi South 17.3 mph 20.7 mph N/A   Overcast
1:35 PM 71.6 °F 60.8 °F 69% 29.88 in 10.0 mi South 17.3 mph 21.9 mph N/A   Overcast
1:55 PM 71.6 °F 60.8 °F 69% 29.87 in 10.0 mi South 17.3 mph - N/A   Overcast
2:15 PM 71.6 °F 60.8 °F 69% 29.87 in 10.0 mi SSW 10.4 mph 21.9 mph N/A   Overcast
2:35 PM 71.6 °F 60.8 °F 69% 29.87 in 10.0 mi SSW 11.5 mph 20.7 mph N/A   Overcast
2:55 PM 71.6 °F 60.8 °F 69% 29.87 in 10.0 mi SSW 11.5 mph 16.1 mph N/A   Overcast
3:15 PM 71.6 °F 60.8 °F 69% 29.86 in 10.0 mi SSW 11.5 mph 18.4 mph N/A   Overcast
3:35 PM 73.4 °F 60.8 °F 65% 29.87 in 10.0 mi SSW 15.0 mph 19.6 mph N/A   Mostly Cloudy
3:55 PM 73.4 °F 60.8 °F 65% 29.88 in 10.0 mi SW 8.1 mph - N/A   Mostly Cloudy
4:15 PM 73.4 °F 60.8 °F 65% 29.89 in 10.0 mi SSW 8.1 mph - N/A   Overcast
4:35 PM 73.4 °F 60.8 °F 65% 29.89 in 10.0 mi SW 5.8 mph - N/A   Overcast
5:15 PM 73.4 °F 60.8 °F 65% 29.89 in 10.0 mi South 4.6 mph - N/A   Overcast
5:35 PM 73.4 °F 60.8 °F 65% 29.90 in 10.0 mi SW 5.8 mph - N/A   Overcast
5:55 PM 73.4 °F 62.6 °F 69% 29.91 in 10.0 mi SSW 4.6 mph - N/A   Overcast
6:15 PM 73.4 °F 62.6 °F 69% 29.91 in 10.0 mi South 4.6 mph - N/A   Mostly Cloudy
6:35 PM 71.6 °F 62.6 °F 73% 29.92 in 10.0 mi Calm Calm - N/A   Scattered Clouds
6:55 PM 71.6 °F 60.8 °F 69% 29.93 in 10.0 mi Calm Calm - N/A   Scattered Clouds
7:15 PM 71.6 °F 62.6 °F 73% 29.94 in 10.0 mi SSE 3.5 mph - N/A   Scattered Clouds
7:35 PM 68.0 °F 62.6 °F 83% 29.95 in 10.0 mi ESE 5.8 mph - N/A   Clear
7:55 PM 66.2 °F 60.8 °F 83% 29.96 in 10.0 mi East 4.6 mph - N/A   Clear
8:15 PM 64.4 °F 60.8 °F 88% 29.96 in 10.0 mi ESE 5.8 mph - N/A   Clear
8:35 PM 64.4 °F 60.8 °F 88% 29.97 in 10.0 mi ESE 5.8 mph - N/A   Clear
8:55 PM 62.6 °F 60.8 °F 94% 29.99 in 10.0 mi ESE 5.8 mph - N/A   Clear
9:15 PM 62.6 °F 60.8 °F 94% 29.99 in 10.0 mi ESE 8.1 mph - N/A   Clear
9:35 PM 62.6 °F 60.8 °F 94% 30.00 in 10.0 mi ESE 6.9 mph - N/A   Clear
9:55 PM 62.6 °F 60.8 °F 94% 30.01 in 10.0 mi ESE 6.9 mph - N/A   Clear
10:15 PM 60.8 °F 60.8 °F 100% 30.02 in 10.0 mi ESE 5.8 mph - N/A   Clear
10:35 PM 60.8 °F 60.8 °F 100% 30.04 in 10.0 mi NNE 6.9 mph - N/A   Clear
10:55 PM 60.8 °F 60.8 °F 100% 30.06 in 7.0 mi NNE 8.1 mph - N/A   Clear
11:15 PM 59.0 °F 59.0 °F 100% 30.06 in 10.0 mi NNE 10.4 mph - N/A   Clear
11:35 PM 59.0 °F 59.0 °F 100% 30.08 in 10.0 mi NNE 9.2 mph - N/A   Clear
11:55 PM 59.0 °F 59.0 °F 100% 30.08 in 10.0 mi NE 8.1 mph - N/A   Clear